EW6271 Weather Reports


Display with metric or nautical units.
time (UTC)temp
F
wind
direction
speed
MPH
gust
MPH
rain 1hr
in
rain 24hr
in
rain mn
in
humidity
%
barometer
mb
20180621103346 57 300 0.0 0.0 0.00 0.00 0.00 94 1011.4
20180621101844 57 300 0.0 2.0 0.00 0.00 0.00 94 1011.1
20180621100343 57 49 0.0 0.0 0.00 0.00 0.00 94 1011.0
20180621094845 58 64 0.0 1.0 0.00 0.00 0.00 93 1011.2
20180621093343 57 319 0.0 1.0 0.00 0.00 0.00 94 1011.3
20180621091839 56 298 1.0 1.0 0.00 0.00 0.00 94 1011.3
20180621090337 55 267 0.0 1.0 0.00 0.00 0.00 94 1010.7
20180621084837 55 176 0.0 0.0 0.00 0.00 0.00 94 1010.8
20180621083337 55 176 0.0 6.0 0.00 0.00 0.00 95 1010.8
20180621081834 54 342 0.0 0.0 0.00 0.00 0.00 94 1010.4
20180621080335 55 342 0.0 1.0 0.00 0.00 0.00 94 1010.6
20180621074837 55 342 0.0 0.0 0.00 0.00 0.00 93 1010.3
20180621073328 55 342 0.0 1.0 0.00 0.00 0.00 92 1010.4
20180621071826 56 342 0.0 1.0 0.00 0.00 0.00 91 1010.5
20180621070321 57 342 0.0 1.0 0.00 0.00 0.00 91 1010.4
20180621064821 58 342 0.0 1.0 0.00 0.00 0.00 90 1010.3
20180621063325 59 342 0.0 2.0 0.00 0.00 0.00 89 1010.4
20180621061820 60 348 0.0 1.0 0.00 0.00 0.00 89 1010.3
20180621060318 60 348 0.0 1.0 0.00 0.00 0.00 88 1010.5
20180621054818 61 349 1.0 1.0 0.00 0.00 0.00 90 1010.8
20180621053320 61 349 0.0 1.0 0.00 0.00 0.00 91 1010.8
20180621051818 61 348 0.0 1.0 0.00 0.00 0.00 90 1011.0
20180621050316 61 349 0.0 1.0 0.00 0.00 0.00 89 1010.9
20180621044820 62 348 0.0 0.0 0.00 0.00 0.00 87 1010.9
20180621043321 62 354 1.0 2.0 0.00 0.00 0.00 86 1010.7
20180621041815 63 347 0.0 1.0 0.00 0.00 0.00 87 1010.4
20180621040315 63 231 0.0 1.0 0.00 0.00 0.00 87 1010.4
20180621034813 65 230 0.0 1.0 0.00 0.00 0.00 84 1010.3
20180621033315 66 229 0.0 1.0 0.00 0.00 0.00 81 1010.4
20180621031812 68 201 0.0 0.0 0.00 0.00 0.00 77 1010.6
20180621030309 70 201 0.0 0.0 0.00 0.00 0.00 72 1010.6
20180621024805 71 200 0.0 0.0 0.00 0.00 0.00 64 1010.6
20180621023305 73 200 0.0 0.0 0.00 0.00 0.00 61 1010.6
20180621021807 74 200 0.0 0.0 0.00 0.00 0.00 58 1010.7
20180621020306 75 172 0.0 1.0 0.00 0.00 0.00 53 1010.7
20180621014805 77 148 0.0 2.0 0.00 0.00 0.00 47 1010.8
20180621013303 79 117 0.0 2.0 0.00 0.00 0.00 47 1010.6
20180621011802 79 95 0.0 2.0 0.00 0.00 0.00 46 1010.6
20180621010259 80 195 0.0 2.0 0.00 0.00 0.00 46 1010.7
20180621004758 80 330 0.0 2.0 0.00 0.00 0.00 44 1010.7
20180621003257 80 217 1.0 2.0 0.00 0.00 0.00 43 1011.0
20180621001755 80 162 0.0 3.0 0.00 0.00 0.00 44 1011.3
20180621000253 79 244 1.0 3.0 0.00 0.00 0.00 43 1011.5
20180620234748 78 14 1.0 6.0 0.00 0.00 0.00 45 1011.8
20180620233252 79 242 0.0 4.0 0.00 0.00 0.00 44 1012.0
20180620231746 80 280 2.0 4.0 0.00 0.00 0.00 45 1012.2
20180620230247 79 208 1.0 4.0 0.00 0.00 0.00 44 1012.4
20180620224741 79 163 1.0 4.0 0.00 0.00 0.00 44 1012.5
20180620223240 78 153 2.0 6.0 0.00 0.00 0.00 43 1012.7
20180620221735 77 114 2.0 8.0 0.00 0.00 0.00 46 1012.8
20180620220234 77 84 0.0 7.0 0.00 0.00 0.00 46 1013.1
20180620214733 77 92 2.0 7.0 0.00 0.00 0.00 47 1013.2
20180620213230 77 47 3.0 6.0 0.00 0.00 0.00 46 1013.2
20180620211728 77 267 1.0 8.0 0.00 0.00 0.00 50 1013.4
20180620210230 76 144 1.0 7.0 0.00 0.00 0.00 49 1013.6
20180620204725 77 240 1.0 5.0 0.00 0.00 0.00 50 1013.8
20180620203222 76 172 2.0 7.0 0.00 0.00 0.00 48 1014.0
20180620201723 75 149 2.0 6.0 0.00 0.00 0.00 51 1014.2
20180620200217 76 79 1.0 4.0 0.00 0.00 0.00 52 1014.2
20180620194714 75 167 2.0 6.0 0.00 0.00 0.00 50 1014.4
20180620193211 74 111 1.0 7.0 0.00 0.00 0.00 58 1014.5
20180620191708 74 78 2.0 5.0 0.00 0.00 0.00 54 1014.6
20180620190209 74 174 2.0 6.0 0.00 0.00 0.00 57 1014.7
20180620184703 73 187 3.0 7.0 0.00 0.00 0.00 59 1014.9
20180620183159 73 158 3.0 6.0 0.00 0.00 0.00 57 1015.0
20180620181656 72 69 2.0 5.0 0.00 0.00 0.00 65 1015.1
20180620180156 72 70 2.0 7.0 0.00 0.00 0.00 63 1015.3
20180620174652 71 142 2.0 6.0 0.00 0.00 0.00 63 1015.4
20180620173151 71 165 2.0 6.0 0.00 0.00 0.00 63 1015.3
20180620171648 70 141 2.0 5.0 0.00 0.00 0.00 69 1015.4
20180620170144 69 84 1.0 6.0 0.00 0.00 0.00 68 1015.5
20180620164644 69 124 1.0 6.0 0.00 0.00 0.00 70 1015.8
20180620163139 68 153 2.0 4.0 0.00 0.00 0.00 72 1016.0
20180620161636 66 119 1.0 8.0 0.00 0.00 0.00 74 1016.1
20180620160137 66 120 2.0 7.0 0.00 0.00 0.00 76 1016.3
20180620154638 65 91 3.0 8.0 0.00 0.00 0.00 76 1016.3
20180620153127 64 80 2.0 8.0 0.00 0.00 0.00 79 1016.3
20180620151625 64 79 2.0 5.0 0.00 0.00 0.00 80 1016.4
20180620150126 63 94 2.0 5.0 0.00 0.00 0.00 81 1016.4
20180620144620 62 104 3.0 6.0 0.00 0.00 0.00 83 1016.6
20180620143119 62 90 2.0 5.0 0.00 0.00 0.00 83 1016.6
20180620141619 62 96 0.0 3.0 0.00 0.00 0.00 83 1016.6
20180620140115 60 148 0.0 1.0 0.00 0.00 0.00 88 1016.7
20180620134614 58 360 0.0 1.0 0.00 0.00 0.00 93 1016.7
20180620133106 54 360 0.0 1.0 0.00 0.00 0.00 96 1016.6
20180620131601 52 360 0.0 1.0 0.00 0.00 0.00 97 1016.5
20180620130101 50 360 0.0 1.0 0.00 0.00 0.00 97 1016.6
20180620124602 48 360 0.0 1.0 0.00 0.00 0.00 98 1016.5
20180620123059 47 360 0.0 1.0 0.00 0.00 0.00 97 1016.6
20180620121559 47 360 0.0 1.0 0.00 0.00 0.00 97 1016.4
20180620120059 47 360 0.0 1.0 0.00 0.00 0.00 97 1016.3
20180620114554 48 360 0.0 1.0 0.00 0.00 0.00 97 1016.1
20180620113053 47 360 0.0 1.0 0.00 0.00 0.00 97 1016.2
20180620111551 47 360 0.0 1.0 0.00 0.00 0.00 97 1016.2
20180620110050 48 360 0.0 1.0 0.00 0.00 0.00 97 1016.3
20180620104549 48 10 0.0 0.0 0.00 0.00 0.00 97 1016.3